Voltar ao catálogo

KUIPER-00527

AtivoComunicaçõesLEO
NORAD 69269·PAYLOAD·🇺🇸 United States

Lançado May 29, 2026 de Vandenberg Space Force Base

Loading…

Próximas Passagens (próximas 24 horas)

TLE

AtualizadoSource: CelesTrak SupGP

Época: Sep 14, 2026, 21:15 UTC

1 69269C 26118C   26257.88547454  .00002515  00000+0  32915-3 0  2579
2 69269  51.8992   1.6490 0000430  99.9805 153.8232 14.79933668    16

Acompanhe KUIPER-00527 em tempo real com AllMySat

Download on the App Store